User: anonymous   Login
Location: Caltech
(34.1382°N, 118.1253°W)
Time: 22:35:59
(UTC-07:00)
Language:

Spot 4 Rocket - Orbit

View from above orbital plane
View from above orbital plane
View from above satellite
View from above satellite

Ground track
Ground track

The orbit data is extracted from the following two-line orbital elements,

1 25261U 98017B   17179.43859116 +.00000045 +00000-0 +32144-4 0  9990
2 25261 098.5462 126.5600 0004506 065.4551 294.7103 14.33588089006622
Epoch (UTC): 28 June 2017 10:31:34
Eccentricity: 0.0004506
inclination: 98.5462°
perigee height: 776 km
apogee height: 783 km
right ascension of ascending node: 126.5600°
argument of perigee: 65.4551°
revolutions per day: 14.33588089
mean anomaly at epoch: 294.7103°
orbit number at epoch: 662

The dashed part of the orbit path shows where the satellite is in the earth's shadow,  

DLR